SCP
0 0 0 0 0 0 0 0 0 0 0 0 0 0 0 0 0 0 0 0 0 0 0 0 0 0 0 0 0 0 0 0 0 0 0 0 0 -0
0 0 0 0 0 0 0 0 0 0 0 0 0 0 0 0 0 0 0 0 0 0 0 0 0 0 0 0 0 0 0 0 0 0 0 0 0 -0
0 0 0 0 0 0 0 0 0 0 0 0 0 0 0 0 0 0 0 0 0 0 0 0 0 0 0 0 0 0 -0 -0 -0 0 0 0 0 0
0 0 0 0 0 0 0 0 0 0 0 0 0 0 0 0 0 0 0 0 0 0 0 0 0 0 0 0 0 0 0 0 -0 -0 0 -0 0 -0
0 0 0 0 0 -0 0 0 0 0 0 0 0 0 0 0 0 0 0 0 0 0 0 0 0 0 0 0 0 0 0 0 0 -0 -0 0 -0 0
-0 0 0 0 -0 0 0 0 0 0 0 0 0 0 0 0 0 0 0 0 0 0 0 0 0 0 0 0 0 -0 -0 0 0 0 0 -0 -0 -0
0 0 0 0 0 0 0 0 0 -0 0 0 0 0 0 0 0 0 0 0 0 0 0 0 0 0 0 0 0 -0 -0 -0 0 0 0 0 -0 -0
0 0 0 0 0 0 -0 -0 -0 -0 -0 0 0 0 0 0 0 0 0 0 0 0 0 0 0 0 0 0 0 -0 -0 0 -0 -0 0 0 0 -0
0 0 0 0 0 0 -0 -0 -0 -0 -0 0 0 0 0 0 0 0 0 0 0 0 0 0 0 0 0 0 -0 -0 -0 0 -0 -0 -0 0 0 0
0 0 0 -0 -0 -0 -0 -0 -0 -0 -0 0 0 0 0 0 0 0 0 0 0 0 0 0 0 0 0 0 -0 -0 -0 0 -0 -0 -0 -0 0 0
0 -0 -0 -0 -0 -0 -0 -0 -0 -0 -0 -0 0 0 0 0 0 0 0 0 0 0 0 0 0 0 0 0 0 0 0 0 -0 -0 -0 -0 -0 -0
0 -0 -0 -0 -0 0 0 -0 -0 0 -0 -0 -0 -0 0 0 0 0 0 0 0 0 0 0 0 0 0 0 0 -0 -0 -0 -0 0 -0 -0 -0 0
0 -0 0 0 0 0 0 -0 0 0 0 0 -0 0 0 0 0 0 0 0 0 0 0 0 0 0 0 0 0 -0 -0 0 0 0 0 -0 -0 0
0 -0 -0 0 0 0 0 0 -0 -0 0 -0 -0 0 0 0 0 0 0 0 0 0 0 0 0 0 0 -0 0 0 -0 0 0 0 0 0 -0 -0
0 -0 0 0 0 0 0 -0 -0 0 -0 -0 0 0 -0 0 0 0 0 0 0 0 0 0 0 -0 -0 -0 0 0 0 0 0 0 0 0 0 0
0 0 0 0 0 0 0 0 -0 0 0 -0 0 -0 -0 0 0 0 0 0 0 0 0 0 0 -0 -0 -0 -0 -0 -0 -0 -0 -0 -0 0 0 0
0 0 0 0 0 0 0 -0 -0 0 0 -0 0 -0 -0 0 0 0 0 0 0 0 0 0 0 0 -0 -0 -0 -0 -0 -0 -0 0 0 0 0 0
0 0 0 0 0 0 0 -0 -0 0 0 -0 -0 -0 0 0 0 0 0 0 0 0 0 0 0 0 0 -0 -0 -0 -0 -0 -0 -0 0 0 -0 0
0 0 0 0 0 0 0 -0 -0 0 0 -0 -0 -0 0 0 0 0 0 0 0 0 0 0 0 0 0 -0 -0 -0 -0 -0 -0 -0 -0 -0 0 -0
0 0 0 0 0 0 0 0 0 0 0 -0 0 -0 0 0 0 0 0 0 0 0 0 0 0 0 0 0 -0 -0 0 -0 -0 -0 -0 -0 -0 -0
0 0 0 0 0 0 0 0 -0 -0 -0 0 -0 0 0 0 0 0 0 0 0 0 0 0 0 0 0 0 -0 0 0 0 0 -0 -0 -0 -0 0
0 0 0 0 0 0 0 0 -0 -0 -0 0 0 0 0 0 0 0 0 0 0 0 0 0 0 0 0 0 0 0 0 -0 0 0 -0 -0 -0 -0
0 0 0 0 0 0 0 0 -0 -0 -0 0 0 0 0 0 0 0 0 0 0 0 0 0 0 0 0 0 0 0 -0 0 0 0 0 -0 0 0
Wind_Speed_500mb
57 62 61 52 38 31 31 33 41 36 31 25 20 15 21 29 32 32 35 38 42 38 43 50 50 49 50 58 57 51 44 39 34 36 33 36 28 24
64 57 49 40 32 30 33 32 42 35 33 29 23 14 18 24 22 30 31 33 25 33 43 51 58 49 44 46 56 61 46 39 37 35 33 28 24 22
51 30 27 27 26 29 31 37 43 30 24 25 16 7 13 17 20 23 26 23 25 34 38 50 67 69 49 46 51 58 56 46 38 35 32 28 25 24
42 27 28 31 27 30 29 36 30 24 23 19 14 1 7 15 20 21 21 26 29 35 39 45 56 69 73 52 53 56 56 54 50 35 26 24 23 19
52 45 29 27 35 32 30 30 33 23 18 13 15 12 13 18 19 21 22 25 27 30 39 51 52 59 78 62 57 59 59 56 51 49 37 25 25 23
57 55 38 39 41 34 32 28 27 22 20 17 19 24 20 24 25 26 26 24 23 28 36 39 50 53 72 65 57 59 60 59 58 54 46 39 33 27
60 47 46 46 40 29 17 27 22 22 23 23 27 29 29 29 30 31 28 28 30 35 33 39 50 53 74 70 56 57 60 58 53 55 55 54 49 46
66 64 61 52 38 31 32 28 23 18 23 26 33 31 37 33 32 29 29 28 38 31 31 40 46 59 69 79 60 52 57 60 57 53 51 47 44 43
69 72 69 48 47 47 42 40 38 36 32 27 36 39 38 34 26 30 33 31 36 38 31 36 44 54 58 63 63 52 55 57 56 56 51 47 43 39
80 74 57 53 47 45 50 48 43 42 39 38 39 46 40 37 32 31 32 38 40 40 42 46 38 52 65 69 57 51 53 54 53 55 59 51 49 50
74 58 53 54 54 49 45 47 47 48 46 41 45 44 42 40 37 28 35 36 48 42 45 48 47 38 59 72 65 49 49 52 52 55 54 56 54 54
68 59 55 59 51 49 41 44 47 48 42 43 45 45 41 40 35 38 41 48 45 45 46 47 53 55 42 70 72 54 46 51 51 55 55 54 58 61
78 75 65 54 52 45 38 39 44 47 45 45 45 47 42 33 33 39 44 45 45 48 42 41 48 55 61 59 74 68 54 48 56 53 54 59 57 60
83 78 71 62 57 50 48 48 48 46 47 45 46 46 36 33 33 37 40 39 42 46 43 38 45 53 58 69 76 76 69 53 51 57 60 58 56 58
81 75 71 65 58 53 50 48 42 46 46 47 49 43 39 36 32 34 29 29 32 41 42 43 43 42 53 63 68 80 90 79 64 62 54 53 56 59
76 75 70 63 55 58 51 46 42 43 45 47 44 40 36 30 26 22 22 27 34 38 45 45 46 46 50 55 56 65 75 86 89 82 71 60 58 62
82 75 70 64 59 58 53 48 44 42 41 40 35 32 28 24 22 18 13 16 31 31 33 38 41 44 47 49 53 57 61 70 75 80 83 80 78 74
78 77 73 65 60 57 55 51 46 43 41 37 34 28 23 18 15 14 13 18 26 28 27 26 29 34 38 44 49 50 52 58 62 70 77 86 86 81
75 72 67 62 57 52 50 47 46 37 34 30 28 25 23 19 17 17 17 20 25 25 26 25 26 32 35 39 39 46 50 52 44 59 67 77 83 83
67 65 63 61 55 50 45 44 41 36 30 27 23 22 22 21 17 17 16 19 23 23 25 25 25 28 29 36 38 38 38 43 46 40 46 57 66 71
63 61 60 56 52 48 44 38 33 29 25 24 22 19 19 15 19 17 17 18 19 21 25 27 28 27 27 29 33 33 35 36 40 43 39 32 55 66
62 61 57 53 51 47 44 39 34 29 26 24 23 20 17 15 17 18 19 19 20 20 23 23 19 18 28 30 36 36 37 37 40 42 46 49 49 54
61 58 56 52 48 44 41 37 33 30 26 24 24 22 20 20 20 21 21 20 18 18 17 16 15 18 28 27 28 32 32 33 40 46 51 48 46 46
Wind_Direction_500mb
232 231 233 237 228 226 245 243 224 190 187 204 236 280 311 329 337 347 350 1 14 34 20 20 19 16 16 18 13 6 359 358 1 358 353 351 358 8
224 229 234 232 224 223 236 238 231 233 194 209 221 259 311 332 344 350 358 8 44 21 20 30 27 21 13 11 9 3 4 360 357 358 357 359 4 12
213 214 229 229 224 217 209 217 219 231 227 193 207 256 317 346 360 2 6 39 38 30 34 40 35 27 21 19 13 6 7 6 1 360 0 6 3 12
184 199 223 228 217 203 201 206 214 224 235 194 173 146 7 24 23 25 56 65 44 50 38 30 25 23 23 24 16 16 12 10 8 4 4 6 15 16
179 185 210 221 206 187 181 178 182 180 177 153 124 96 74 59 48 61 79 57 55 50 34 30 26 18 21 24 20 19 19 16 15 10 9 17 10 5
183 178 201 192 193 168 162 173 177 156 151 123 103 108 93 80 70 73 65 63 50 34 39 35 25 22 18 24 24 20 22 24 28 29 25 23 17 11
174 182 171 182 170 159 175 166 149 138 130 115 115 107 96 87 76 68 64 68 52 44 43 36 30 25 20 27 30 25 24 25 27 32 38 39 37 34
168 164 165 163 157 157 153 134 121 111 125 120 115 107 99 90 86 70 66 59 51 50 45 42 32 29 22 19 27 27 26 26 25 29 32 33 35 34
167 162 158 155 161 159 147 138 124 120 108 107 106 102 101 89 77 60 57 59 49 43 52 45 39 34 27 20 20 27 27 29 25 29 32 29 28 25
162 161 156 158 162 154 142 131 120 113 109 107 104 105 97 87 77 70 69 63 61 53 52 37 38 37 33 29 26 28 31 34 32 36 37 39 38 34
156 161 163 158 153 154 144 133 121 112 109 111 109 104 98 92 85 76 59 59 60 58 52 44 35 40 34 31 33 31 33 37 39 37 40 40 42 37
159 155 154 148 153 148 143 132 118 109 110 111 111 108 104 97 83 67 59 54 62 56 50 48 39 42 42 39 37 38 40 43 43 41 42 44 45 47
149 147 146 149 148 143 138 126 113 109 112 111 114 114 109 107 83 72 67 60 60 57 49 52 47 48 50 45 41 38 39 48 53 47 45 42 46 47
151 150 148 148 144 142 136 123 110 112 110 111 113 114 110 109 93 82 75 63 57 57 48 54 55 47 47 48 44 45 44 44 48 51 50 53 51 49
150 148 146 142 139 137 131 125 112 113 109 114 112 110 110 105 104 104 86 64 59 59 51 56 58 53 49 52 51 50 51 48 53 54 52 49 44 42
149 145 145 144 141 135 129 126 111 114 111 113 113 113 111 105 111 124 104 71 73 66 59 60 61 60 59 57 55 53 51 49 48 51 54 53 50 50
150 148 148 148 144 137 134 129 116 115 115 111 112 120 120 118 110 110 93 76 70 70 66 61 63 62 60 59 53 50 48 47 46 47 50 53 52 49
154 155 154 154 151 144 139 132 120 117 113 107 106 109 117 129 122 112 99 86 81 77 71 70 68 67 66 61 55 46 44 42 42 43 47 50 51 50
160 161 157 156 154 147 139 134 129 127 118 110 103 97 95 110 131 132 108 88 85 77 67 72 73 63 63 60 55 49 43 40 35 41 45 49 51 50
166 164 161 159 156 151 144 138 133 134 126 118 102 90 93 94 117 135 128 95 85 78 76 73 66 54 62 71 57 44 46 43 41 37 40 51 53 54
169 165 163 159 157 152 146 141 137 134 129 121 107 93 99 103 96 107 131 107 90 82 76 73 61 52 64 82 59 54 54 53 45 44 46 43 50 50
165 162 160 158 157 152 146 143 144 142 135 126 111 97 101 109 99 93 109 125 102 91 79 76 67 53 69 78 74 68 67 60 52 50 50 53 54 55
165 163 159 156 154 151 149 146 146 140 132 128 115 104 96 96 99 97 93 102 122 104 91 83 77 76 87 84 76 79 76 69 58 55 52 51 50 53
Wind_Speed_850mb
57 62 61 52 38 31 31 33 41 36 31 25 20 15 21 29 32 32 35 38 42 38 43 50 50 49 50 58 57 51 44 39 34 36 33 36 28 24
64 57 49 40 32 30 33 32 42 35 33 29 23 14 18 24 22 30 31 33 25 33 43 51 58 49 44 46 56 61 46 39 37 35 33 28 24 22
51 30 27 27 26 29 31 37 43 30 24 25 16 7 13 17 20 23 26 23 25 34 38 50 67 69 49 46 51 58 56 46 38 35 32 28 25 24
42 27 28 31 27 30 29 36 30 24 23 19 14 1 7 15 20 21 21 26 29 35 39 45 56 69 73 52 53 56 56 54 50 35 26 24 23 19
52 45 29 27 35 32 30 30 33 23 18 13 15 12 13 18 19 21 22 25 27 30 39 51 52 59 78 62 57 59 59 56 51 49 37 25 25 23
57 55 38 39 41 34 32 28 27 22 20 17 19 24 20 24 25 26 26 24 23 28 36 39 50 53 72 65 57 59 60 59 58 54 46 39 33 27
60 47 46 46 40 29 17 27 22 22 23 23 27 29 29 29 30 31 28 28 30 35 33 39 50 53 74 70 56 57 60 58 53 55 55 54 49 46
66 64 61 52 38 31 32 28 23 18 23 26 33 31 37 33 32 29 29 28 38 31 31 40 46 59 69 79 60 52 57 60 57 53 51 47 44 43
69 72 69 48 47 47 42 40 38 36 32 27 36 39 38 34 26 30 33 31 36 38 31 36 44 54 58 63 63 52 55 57 56 56 51 47 43 39
80 74 57 53 47 45 50 48 43 42 39 38 39 46 40 37 32 31 32 38 40 40 42 46 38 52 65 69 57 51 53 54 53 55 59 51 49 50
74 58 53 54 54 49 45 47 47 48 46 41 45 44 42 40 37 28 35 36 48 42 45 48 47 38 59 72 65 49 49 52 52 55 54 56 54 54
68 59 55 59 51 49 41 44 47 48 42 43 45 45 41 40 35 38 41 48 45 45 46 47 53 55 42 70 72 54 46 51 51 55 55 54 58 61
78 75 65 54 52 45 38 39 44 47 45 45 45 47 42 33 33 39 44 45 45 48 42 41 48 55 61 59 74 68 54 48 56 53 54 59 57 60
83 78 71 62 57 50 48 48 48 46 47 45 46 46 36 33 33 37 40 39 42 46 43 38 45 53 58 69 76 76 69 53 51 57 60 58 56 58
81 75 71 65 58 53 50 48 42 46 46 47 49 43 39 36 32 34 29 29 32 41 42 43 43 42 53 63 68 80 90 79 64 62 54 53 56 59
76 75 70 63 55 58 51 46 42 43 45 47 44 40 36 30 26 22 22 27 34 38 45 45 46 46 50 55 56 65 75 86 89 82 71 60 58 62
82 75 70 64 59 58 53 48 44 42 41 40 35 32 28 24 22 18 13 16 31 31 33 38 41 44 47 49 53 57 61 70 75 80 83 80 78 74
78 77 73 65 60 57 55 51 46 43 41 37 34 28 23 18 15 14 13 18 26 28 27 26 29 34 38 44 49 50 52 58 62 70 77 86 86 81
75 72 67 62 57 52 50 47 46 37 34 30 28 25 23 19 17 17 17 20 25 25 26 25 26 32 35 39 39 46 50 52 44 59 67 77 83 83
67 65 63 61 55 50 45 44 41 36 30 27 23 22 22 21 17 17 16 19 23 23 25 25 25 28 29 36 38 38 38 43 46 40 46 57 66 71
63 61 60 56 52 48 44 38 33 29 25 24 22 19 19 15 19 17 17 18 19 21 25 27 28 27 27 29 33 33 35 36 40 43 39 32 55 66
62 61 57 53 51 47 44 39 34 29 26 24 23 20 17 15 17 18 19 19 20 20 23 23 19 18 28 30 36 36 37 37 40 42 46 49 49 54
61 58 56 52 48 44 41 37 33 30 26 24 24 22 20 20 20 21 21 20 18 18 17 16 15 18 28 27 28 32 32 33 40 46 51 48 46 46
Wind_Direction_850mb
232 231 233 237 228 226 245 243 224 190 187 204 236 280 311 329 337 347 350 1 14 34 20 20 19 16 16 18 13 6 359 358 1 358 353 351 358 8
224 229 234 232 224 223 236 238 231 233 194 209 221 259 311 332 344 350 358 8 44 21 20 30 27 21 13 11 9 3 4 360 357 358 357 359 4 12
213 214 229 229 224 217 209 217 219 231 227 193 207 256 317 346 360 2 6 39 38 30 34 40 35 27 21 19 13 6 7 6 1 360 0 6 3 12
184 199 223 228 217 203 201 206 214 224 235 194 173 146 7 24 23 25 56 65 44 50 38 30 25 23 23 24 16 16 12 10 8 4 4 6 15 16
179 185 210 221 206 187 181 178 182 180 177 153 124 96 74 59 48 61 79 57 55 50 34 30 26 18 21 24 20 19 19 16 15 10 9 17 10 5
183 178 201 192 193 168 162 173 177 156 151 123 103 108 93 80 70 73 65 63 50 34 39 35 25 22 18 24 24 20 22 24 28 29 25 23 17 11
174 182 171 182 170 159 175 166 149 138 130 115 115 107 96 87 76 68 64 68 52 44 43 36 30 25 20 27 30 25 24 25 27 32 38 39 37 34
168 164 165 163 157 157 153 134 121 111 125 120 115 107 99 90 86 70 66 59 51 50 45 42 32 29 22 19 27 27 26 26 25 29 32 33 35 34
167 162 158 155 161 159 147 138 124 120 108 107 106 102 101 89 77 60 57 59 49 43 52 45 39 34 27 20 20 27 27 29 25 29 32 29 28 25
162 161 156 158 162 154 142 131 120 113 109 107 104 105 97 87 77 70 69 63 61 53 52 37 38 37 33 29 26 28 31 34 32 36 37 39 38 34
156 161 163 158 153 154 144 133 121 112 109 111 109 104 98 92 85 76 59 59 60 58 52 44 35 40 34 31 33 31 33 37 39 37 40 40 42 37
159 155 154 148 153 148 143 132 118 109 110 111 111 108 104 97 83 67 59 54 62 56 50 48 39 42 42 39 37 38 40 43 43 41 42 44 45 47
149 147 146 149 148 143 138 126 113 109 112 111 114 114 109 107 83 72 67 60 60 57 49 52 47 48 50 45 41 38 39 48 53 47 45 42 46 47
151 150 148 148 144 142 136 123 110 112 110 111 113 114 110 109 93 82 75 63 57 57 48 54 55 47 47 48 44 45 44 44 48 51 50 53 51 49
150 148 146 142 139 137 131 125 112 113 109 114 112 110 110 105 104 104 86 64 59 59 51 56 58 53 49 52 51 50 51 48 53 54 52 49 44 42
149 145 145 144 141 135 129 126 111 114 111 113 113 113 111 105 111 124 104 71 73 66 59 60 61 60 59 57 55 53 51 49 48 51 54 53 50 50
150 148 148 148 144 137 134 129 116 115 115 111 112 120 120 118 110 110 93 76 70 70 66 61 63 62 60 59 53 50 48 47 46 47 50 53 52 49
154 155 154 154 151 144 139 132 120 117 113 107 106 109 117 129 122 112 99 86 81 77 71 70 68 67 66 61 55 46 44 42 42 43 47 50 51 50
160 161 157 156 154 147 139 134 129 127 118 110 103 97 95 110 131 132 108 88 85 77 67 72 73 63 63 60 55 49 43 40 35 41 45 49 51 50
166 164 161 159 156 151 144 138 133 134 126 118 102 90 93 94 117 135 128 95 85 78 76 73 66 54 62 71 57 44 46 43 41 37 40 51 53 54
169 165 163 159 157 152 146 141 137 134 129 121 107 93 99 103 96 107 131 107 90 82 76 73 61 52 64 82 59 54 54 53 45 44 46 43 50 50
165 162 160 158 157 152 146 143 144 142 135 126 111 97 101 109 99 93 109 125 102 91 79 76 67 53 69 78 74 68 67 60 52 50 50 53 54 55
165 163 159 156 154 151 149 146 146 140 132 128 115 104 96 96 99 97 93 102 122 104 91 83 77 76 87 84 76 79 76 69 58 55 52 51 50 53